EKAH

Aarhus Airport

Airport
ICAO code
EKAH
IATA Code
AAR
Summary
ICAO Region
EUR
ICAO Territory
Location

Tirstrup, Central Jutland Region

Serving
Aarhus
Elevation
82 ft
Coordinates
56° 18' 11" N , 10° 37' 4" E
KCC
Metar
EKAH 041020Z AUTO 08015KT 9999 BKN030/// 06/03 Q1016

Description

International airport serving Aarhus, Denmark.

Climatology

Temperate Marine climate/Oceanic climate (Köppen climate classification Cfb). Moderately cool summer and comparatively warm winter with a temperature range of only 14°C. Prevailing south-westerly winds from the Atlantic Ocean.

Runways

Designator Length Width Surface Rops
10R/28L 2702 45 PEM Yes/Yes
10L/28R 2777 23 PEM Yes/Yes

Airport map

Aerial View

Airport accidents

SKYbrary Partners:

Safety knowledge contributed by: